Weather History for Jackson, WY

Change the Weather History Date:

Sunday, March 3, 2013

  Actual Average Record
Temperature  
Mean Temperature 29 °F -  
Max Temperature 37 °F 35 °F 50 °F (1986)
Min Temperature 21 °F 6 °F -23 °F (2002)
Degree Days  
Heating Degree Days 36    
Moisture  
Dew Point 29 °F    
Average Humidity 87    
Maximum Humidity 100    
Minimum Humidity 56    
Precipitation  
Precipitation 0.02 in - - ()
Sea Level Pressure  
Sea Level Pressure 29.88 in    
Wind  
Wind Speed 16 mph (SSW)    
Max Wind Speed 24 mph    
Max Gust Speed 31 mph    
Visibility 6 miles    
Events Rain , Snow    
Averages and records for this station are not official NWS values.
T = Trace of Precipitation, MM = Missing Value Source: NWS Daily Summary

Daily Weather History Graph

Daily Weather History Graph

Search for Another Location

Airport:

Trip Planner

Search our weather history database for the weather conditions in past years. The results will help you decide how hot, cold, wet, or windy it might be!

Date:

Astronomy

Mar. 03, 2013 Rise Set
Actual Time 6:55 AM MST 6:14 PM MST
Civil Twilight 6:26 AM MST 6:43 PM MST
Nautical Twilight 5:53 AM MST 7:16 PM MST
Astronomical Twilight 5:20 AM MST 7:49 PM MST
Moon 12:08 AM MST (3/3) 10:01 AM MST (3/3)
Length of Visible Light 12h 16m
Length of Day
11h 19m
Waning Gibbous, 63% of the Moon is Illuminated
Mar 3
Waning Gibbous
Mar 4
Last Quarter
Mar 11
New
Mar 19
First Quarter
Mar 27
Full

Hourly Weather History & Observations

Time (MST) Temp. Windchill Dew Point Humidity Pressure Visibility Wind Dir Wind Speed Gust Speed Precip Events Conditions
12:15 AM 37.4 °F 27.5 °F 28.4 °F 70% 30.04 in 10.0 mi South 18.4 mph - N/A   Overcast
12:55 AM 37.4 °F 27.8 °F 30.2 °F 75% 30.02 in 10.0 mi SSW 17.3 mph 23.0 mph N/A   Overcast
1:15 AM 37.4 °F 28.9 °F 30.2 °F 75% 30.01 in 10.0 mi SSW 13.8 mph - N/A   Overcast
1:35 AM 35.6 °F 27.1 °F 30.2 °F 81% 30.01 in 10.0 mi SSW 12.7 mph - N/A   Overcast
1:55 AM 35.6 °F 26.6 °F 32.0 °F 87% 30.00 in 8.0 mi SSW 13.8 mph - N/A   Mostly Cloudy
2:15 AM 33.8 °F 25.3 °F 33.8 °F 100% 29.99 in 3.0 mi South 11.5 mph - N/A   Mostly Cloudy
2:35 AM 33.8 °F 25.3 °F 33.8 °F 100% 29.98 in 3.0 mi SSW 11.5 mph - N/A   Overcast
2:55 AM 33.8 °F 27.0 °F 33.8 °F 100% 29.96 in 2.5 mi SW 8.1 mph - N/A   Overcast
3:15 AM 33.8 °F 25.3 °F 33.8 °F 100% 29.95 in 3.0 mi SSW 11.5 mph - N/A   Overcast
3:35 AM 33.8 °F 24.8 °F 33.8 °F 100% 29.95 in 2.0 mi South 12.7 mph - 0.01 in   Overcast
3:55 AM 33.8 °F 26.4 °F 33.8 °F 100% 29.92 in 2.5 mi SSW 9.2 mph - 0.01 in   Overcast
4:15 AM 33.8 °F 26.4 °F 33.8 °F 100% 29.92 in 3.0 mi SW 9.2 mph - 0.01 in   Overcast
5:35 AM 33.8 °F 22.2 °F 33.8 °F 100% 29.91 in 4.0 mi South 20.7 mph - N/A   Overcast
6:15 AM 35.6 °F 24.8 °F 33.8 °F 93% 29.90 in 10.0 mi South 19.6 mph 26.5 mph N/A   Overcast
6:35 AM 35.6 °F 24.8 °F 33.8 °F 93% 29.89 in 10.0 mi South 19.6 mph - N/A   Overcast
6:52 AM 33.8 °F 21.9 °F 33.8 °F 100% 29.89 in 4.0 mi SSE 21.9 mph 27.6 mph N/A Snow Light Snow
6:55 AM 33.8 °F 21.9 °F 33.8 °F 100% 29.89 in 6.0 mi South 21.9 mph 26.5 mph N/A   Overcast
7:53 AM 35.6 °F 24.8 °F 33.8 °F 93% 29.86 in 4.0 mi SSE 19.6 mph - N/A Rain , Snow Light Rain
8:57 AM 35.6 °F 25.9 °F 33.8 °F 93% 29.85 in 4.0 mi South 16.1 mph - N/A Rain , Snow Light Rain
9:56 AM 35.6 °F 24.8 °F 33.8 °F 93% 29.83 in 4.0 mi South 19.6 mph - N/A   Mostly Cloudy
10:53 AM 35.6 °F 25.2 °F 33.8 °F 93% 29.80 in 5.0 mi SSE 18.4 mph - N/A   Overcast
11:52 AM 35.6 °F 25.2 °F 33.8 °F 93% 29.80 in 4.0 mi SSE 18.4 mph - N/A Rain , Snow Light Rain
12:51 PM 35.6 °F 25.2 °F 33.8 °F 93% 29.77 in 3.0 mi SSE 18.4 mph - N/A Snow Light Snow
1:51 PM 37.4 °F 28.9 °F 32.0 °F 81% 29.76 in 6.0 mi SW 13.8 mph 20.7 mph N/A Snow Light Snow
2:55 PM 37.4 °F 28.2 °F 28.4 °F 70% 29.76 in 7.0 mi SW 16.1 mph 21.9 mph N/A   Overcast
3:51 PM 35.6 °F 24.8 °F 24.8 °F 65% 29.75 in 7.0 mi SW 19.6 mph 27.6 mph N/A   Mostly Cloudy
4:52 PM 35.6 °F 24.5 °F 21.2 °F 56% 29.74 in 10.0 mi SW 20.7 mph 31.1 mph N/A   Mostly Cloudy
5:55 PM 33.8 °F 21.3 °F 24.8 °F 70% 29.76 in 5.0 mi SSW 24.2 mph 28.8 mph N/A Snow Light Snow
6:54 PM 32.0 °F 22.1 °F 26.6 °F 80% 29.78 in 5.0 mi SSW 13.8 mph 31.1 mph N/A Snow Light Snow
7:55 PM 28.4 °F 16.2 °F 24.8 °F 86% 29.80 in 3.0 mi SSW 17.3 mph 31.1 mph N/A Snow Light Snow
9:15 PM 24.8 °F 15.3 °F 21.2 °F 86% 29.84 in 4.0 mi WNW 9.2 mph 17.3 mph N/A   Overcast
9:35 PM 24.8 °F 16.9 °F 17.6 °F 74% 29.85 in 10.0 mi West 6.9 mph - N/A   Mostly Cloudy
10:15 PM 24.8 °F 13.4 °F 15.8 °F 69% 29.85 in 10.0 mi West 12.7 mph - N/A   Overcast
10:55 PM 21.2 °F 8.9 °F 17.6 °F 86% 29.87 in 10.0 mi North 12.7 mph - N/A   Overcast
11:15 PM 21.2 °F 10.1 °F 17.6 °F 86% 29.87 in 10.0 mi North 10.4 mph - N/A   Overcast
11:35 PM 21.2 °F 8.9 °F 17.6 °F 86% 29.87 in 10.0 mi North 12.7 mph - N/A   Overcast